Current weather by "City, St" or "zip code"  
 

Current Conditions: Birmingham, Birmingham International Airport, AL

Fair


48.0 F

Last Updated on Oct 31 2020, 2:53 am CDT
Humidity: 71%
Wind Speed: NE 4.6 mph
Barometer 30.26 in
Dewpoint: 39.0 F
Visibility: 10.00 mi
Precip: --
Heat Index: NA
Wind Chill: 46 F
Current conditions at:

Birmingham, Birmingham International Airport, AL (KBHM)

Lat: 33.56556 Lon: 86.745

Local Radar Image active severe weather and emergency alerts image image weather storm and storm spotter reports image weather observation monitoring service image
Local
Radar
Active
Alerts
Storm Reports Obs
Monitoring

Sign-up For Email & Text Message Weather Alert Notification Services



Advertise Here

Observation History for Birmingham, Birmingham International Airport, AL


Time Wind
(mph)
Vis
(mi)
Weather Precip (in) Temperature (F) Relative
Humidity
Wind
Chill
(F)
Heat
Index
(F)
Pressure
Air Dwpt altimeter
(in)
sea level
(mb)
Rmks
2:53 am CDT NE 4.6 10.00 Fair -- 48.0 39.0 71% 46 NA 30.26 1024.4
1:53 am CDT N 0.0 10.00 Fair -- 44.0 39.9 85% NA NA 30.26 1024.6
12:53 am CDT N 5.8 10.00 Fair -- 44.0 39.9 85% 41 NA 30.25 1024.2
11:53 pm CDT N 0.0 10.00 Fair -- 47.0 39.9 77% NA NA 30.26 1024.5
10:53 pm CDT NE 3.5 10.00 Fair -- 47.0 39.9 77% NA NA 30.26 1024.7
9:53 pm CDT NE 3.5 10.00 Fair -- 49.0 39.9 71% NA NA 30.27 1024.9
8:53 pm CDT N 9.2 10.00 Fair -- 50.0 39.9 68% 46 NA 30.26 1024.5
7:53 pm CDT N 6.9 10.00 Fair -- 50.0 39.9 68% 47 NA 30.26 1024.5
6:53 pm CDT N 5.8 10.00 Fair -- 51.0 41.0 69% 49 NA 30.24 1024.0
5:53 pm CDT N 6.9 10.00 Fair -- 54.0 41.0 62% 52 NA 30.23 1023.4
4:53 pm CDT N 11.5 10.00 Fair -- 58.0 41.0 53% 56 NA 30.21 1022.9
3:53 pm CDT N 11.5 10.00 Fair -- 60.0 41.0 50% 58 NA 30.21 1022.8
2:53 pm CDT N 16.1 G 19.6 10.00 Fair -- 60.0 42.1 52% 57 NA 30.20 1022.4
1:53 pm CDT N 11.5 10.00 A Few Clouds -- 60.0 42.1 52% 58 NA 30.21 1022.6
12:53 pm CDT N 11.5 G 21.9 10.00 A Few Clouds -- 59.0 42.1 54% 57 NA 30.22 1023.3
11:53 am CDT N 12.7 G 21.9 10.00 Mostly Cloudy -- 56.0 42.1 60% 53 NA 30.24 1023.8
10:53 am CDT N 11.5 10.00 Mostly Cloudy -- 55.0 44.1 67% 52 NA 30.24 1023.9
9:53 am CDT N 9.2 10.00 Overcast -- 53.0 44.1 72% 50 NA 30.24 1023.7
8:53 am CDT N 8.1 10.00 Overcast -- 52.0 44.1 75% 49 NA 30.22 1023.4
7:53 am CDT N 9.2 10.00 Overcast -- 51.0 44.1 77% 48 NA 30.19 1022.2
6:53 am CDT N 8.1 10.00 Overcast -- 51.0 43.0 74% 48 NA 30.16 1021.1
5:53 am CDT N 11.5 G 17.3 10.00 Overcast -- 51.0 43.0 74% 47 NA 30.13 1020.0
4:53 am CDT NW 9.2 10.00 Overcast -- 51.0 44.1 77% 48 NA 30.10 1018.8

Regional Weather Observation


Jasper Walker County Airport amp; Bevill Field, AL (KJFX)

Fair
41.0 F

Alabaster, Shelby County Airport, AL (KEET)

Fair
48.0 F

Gadsden, Gadsden Municipal Airport, AL (KGAD)

Fair
41.0 F

Folsom Field Airport, AL (K3A1)

Partly Cloudy
82.0 F

Tuscaloosa Regional Airport, AL (KTCL)

Fair
44.0 F

Albertville, Albertville Municipal Airport, AL (K8A0)

Fair
43.0 F